EN

Hourly Weather Abramowice

Today, 14 May, Friday

Time Temperature Precipitation Wind Pressure Humidity
00:00 +12°C° 0.1 mm 2 mps 716 mmHg 94%
01:00 +12°C° 0 mm 2 mps 716 mmHg 94%
02:00 +10°C° 0.9 mm 2 mps 716 mmHg 95%
03:00 +10°C° 0.9 mm 2 mps 716 mmHg 96%
04:00 +10°C° 0.9 mm 2 mps 716 mmHg 97%
05:00 +10°C° 1.7 mm 2 mps 716 mmHg 97%
06:00 +10°C° 1.7 mm 2 mps 716 mmHg 97%
07:00 +12°C° 0 mm 2 mps 717 mmHg 96%
08:00 +12°C° 0.8 mm 2 mps 717 mmHg 95%
09:00 +12°C° 0.8 mm 2 mps 718 mmHg 94%
10:00 +12°C° 0.8 mm 2 mps 718 mmHg 93%
11:00 +13°C° 0.8 mm 2 mps 718 mmHg 91%
12:00 +13°C° 0.8 mm 2 mps 719 mmHg 90%
13:00 +13°C° 0.8 mm 2 mps 719 mmHg 88%
14:00 +13°C° 0.8 mm 2 mps 719 mmHg 89%
15:00 +12°C° 0.8 mm 3 mps 719 mmHg 90%
16:00 +12°C° 0.8 mm 3 mps 720 mmHg 90%
17:00 +12°C° 0.2 mm 2 mps 720 mmHg 92%
18:00 +12°C° 0.2 mm 2 mps 720 mmHg 93%
19:00 +12°C° 0.2 mm 2 mps 721 mmHg 94%
20:00 +10°C° 0 mm 2 mps 721 mmHg 95%
21:00 +10°C° 0 mm 2 mps 721 mmHg 95%
22:00 +10°C° 0 mm 2 mps 722 mmHg 95%
23:00 +9°C° 0 mm 2 mps 722 mmHg 95%

Tomorrow, 15 May, Saturday

Time Temperature Precipitation Wind Pressure Humidity
00:00 +9°C° 0 mm 2 mps 722 mmHg 94%
01:00 +9°C° 0 mm 2 mps 722 mmHg 94%
02:00 +10°C° 0 mm 1 mps 722 mmHg 94%
03:00 +10°C° 0 mm 1 mps 722 mmHg 94%
04:00 +10°C° 0 mm 1 mps 723 mmHg 93%
05:00 +11°C° 0 mm 1 mps 723 mmHg 90%
06:00 +12°C° 0 mm 1 mps 723 mmHg 87%
07:00 +13°C° 0 mm 1 mps 723 mmHg 83%
08:00 +14°C° 0 mm 1 mps 723 mmHg 75%
09:00 +16°C° 0 mm 1 mps 723 mmHg 68%
10:00 +18°C° 0 mm 1 mps 723 mmHg 60%
11:00 +18°C° 0.1 mm 1 mps 723 mmHg 59%
12:00 +19°C° 0.1 mm 1 mps 723 mmHg 59%
13:00 +19°C° 0.1 mm 1 mps 722 mmHg 58%
14:00 +19°C° 0.6 mm 1 mps 722 mmHg 65%
15:00 +17°C° 0.6 mm 2 mps 722 mmHg 71%
16:00 +17°C° 0.6 mm 2 mps 722 mmHg 77%
17:00 +16°C° 0.4 mm 2 mps 722 mmHg 81%
18:00 +14°C° 0.4 mm 2 mps 721 mmHg 84%
19:00 +13°C° 0.4 mm 1 mps 721 mmHg 88%
20:00 +13°C° 0 mm 1 mps 721 mmHg 89%
21:00 +12°C° 0 mm 1 mps 721 mmHg 90%
22:00 +11°C° 0 mm 1 mps 721 mmHg 91%
23:00 +11°C° 0 mm 1 mps 720 mmHg 91%

Day after tomorrow, 16 May, Sunday

Time Temperature Precipitation Wind Pressure Humidity
00:00 +10°C° 0 mm 2 mps 720 mmHg 92%
01:00 +10°C° 0 mm 2 mps 720 mmHg 92%
02:00 +10°C° 0 mm 2 mps 720 mmHg 91%
03:00 +11°C° 0 mm 1 mps 720 mmHg 90%
04:00 +11°C° 0 mm 1 mps 720 mmHg 89%
05:00 +12°C° 0.5 mm 1 mps 720 mmHg 91%
06:00 +12°C° 0.5 mm 1 mps 720 mmHg 92%
07:00 +12°C° 0.5 mm 1 mps 720 mmHg 94%
08:00 +12°C° 0.4 mm 1 mps 720 mmHg 93%
09:00 +13°C° 0.4 mm 1 mps 720 mmHg 91%
10:00 +13°C° 0.4 mm 1 mps 720 mmHg 90%
11:00 +13°C° 1.4 mm 2 mps 720 mmHg 92%
12:00 +12°C° 1.4 mm 2 mps 720 mmHg 94%
13:00 +10°C° 1.4 mm 3 mps 721 mmHg 96%
14:00 +10°C° 0.5 mm 2 mps 721 mmHg 95%
15:00 +10°C° 0.5 mm 2 mps 721 mmHg 95%
16:00 +11°C° 0.5 mm 1 mps 721 mmHg 95%
17:00 +11°C° 0 mm 1 mps 721 mmHg 94%
18:00 +10°C° 0 mm 1 mps 721 mmHg 94%
19:00 +10°C° 0 mm 1 mps 721 mmHg 94%
20:00 +9°C° 0 mm 1 mps 721 mmHg 94%
21:00 +9°C° 0 mm 1 mps 722 mmHg 94%
22:00 +7°C° 0 mm 2 mps 722 mmHg 93%
23:00 +7°C° 0 mm 2 mps 722 mmHg 93%

17 May, Monday

Time Temperature Precipitation Wind Pressure Humidity
00:00 +6°C° 0 mm 2 mps 722 mmHg 92%
01:00 +6°C° 0 mm 2 mps 722 mmHg 92%
02:00 +6°C° 0 mm 2 mps 722 mmHg 91%
03:00 +6°C° 0 mm 2 mps 722 mmHg 91%
04:00 +6°C° 0 mm 2 mps 722 mmHg 90%
05:00 +9°C° 0 mm 1 mps 722 mmHg 86%
06:00 +11°C° 0 mm 1 mps 722 mmHg 82%
07:00 +12°C° 0 mm 1 mps 722 mmHg 78%
08:00 +14°C° 0.1 mm 1 mps 722 mmHg 73%
09:00 +15°C° 0.1 mm 1 mps 722 mmHg 68%
10:00 +16°C° 0.1 mm 1 mps 721 mmHg 64%
11:00 +15°C° 0.9 mm 1 mps 721 mmHg 72%
12:00 +14°C° 0.9 mm 1 mps 722 mmHg 79%
13:00 +13°C° 0.9 mm 1 mps 722 mmHg 87%
14:00 +14°C° 0.4 mm 1 mps 721 mmHg 85%
15:00 +14°C° 0.4 mm 1 mps 721 mmHg 82%
16:00 +15°C° 0.4 mm 1 mps 721 mmHg 80%
17:00 +14°C° 0.3 mm 1 mps 721 mmHg 83%
18:00 +13°C° 0.3 mm 1 mps 721 mmHg 87%
19:00 +12°C° 0.3 mm 1 mps 721 mmHg 91%
20:00 +11°C° 0.1 mm 1 mps 722 mmHg 92%
21:00 +9°C° 0.1 mm 2 mps 722 mmHg 92%
22:00 +8°C° 0.1 mm 2 mps 722 mmHg 93%
23:00 +8°C° 0 mm 2 mps 722 mmHg 94%

18 May, Tuesday

Time Temperature Precipitation Wind Pressure Humidity
00:00 +7°C° 0 mm 2 mps 722 mmHg 94%
01:00 +7°C° 0 mm 2 mps 722 mmHg 94%
02:00 +7°C° 0 mm 2 mps 722 mmHg 94%
03:00 +7°C° 0 mm 1 mps 722 mmHg 94%
04:00 +7°C° 0 mm 1 mps 723 mmHg 94%
05:00 +9°C° 0 mm 1 mps 723 mmHg 90%
06:00 +10°C° 0 mm 1 mps 723 mmHg 87%
07:00 +11°C° 0 mm 1 mps 723 mmHg 83%
08:00 +12°C° 0 mm 2 mps 723 mmHg 76%
09:00 +12°C° 0 mm 3 mps 723 mmHg 69%
10:00 +13°C° 0 mm 3 mps 723 mmHg 62%
11:00 +14°C° 0.1 mm 4 mps 723 mmHg 62%
12:00 +14°C° 0.1 mm 4 mps 723 mmHg 61%
13:00 +14°C° 0.1 mm 4 mps 723 mmHg 61%
14:00 +14°C° 0.2 mm 4 mps 723 mmHg 64%
15:00 +13°C° 0.2 mm 4 mps 724 mmHg 68%
16:00 +13°C° 0.2 mm 4 mps 724 mmHg 71%
17:00 +12°C° 0.3 mm 3 mps 724 mmHg 77%
18:00 +11°C° 0.3 mm 3 mps 724 mmHg 83%
19:00 +9°C° 0.3 mm 2 mps 724 mmHg 89%
20:00 +8°C° 0.1 mm 2 mps 725 mmHg 91%
21:00 +8°C° 0.1 mm 2 mps 725 mmHg 93%
22:00 +7°C° 0.1 mm 2 mps 725 mmHg 95%
23:00 +7°C° 0 mm 2 mps 726 mmHg 95%

19 May, Wednesday

Time Temperature Precipitation Wind Pressure Humidity
00:00 +7°C° 0 mm 2 mps 726 mmHg 95%
01:00 +8°C° 0 mm 2 mps 726 mmHg 95%
02:00 +8°C° 0.1 mm 3 mps 726 mmHg 95%
03:00 +8°C° 0.1 mm 3 mps 726 mmHg 95%
04:00 +8°C° 0.1 mm 3 mps 726 mmHg 95%
05:00 +8°C° 0.1 mm 3 mps 727 mmHg 94%
06:00 +8°C° 0.1 mm 4 mps 727 mmHg 92%
07:00 +8°C° 0.1 mm 4 mps 727 mmHg 90%
08:00 +10°C° 0.2 mm 4 mps 728 mmHg 84%
09:00 +11°C° 0.2 mm 4 mps 728 mmHg 78%
10:00 +12°C° 0.2 mm 4 mps 728 mmHg 72%
11:00 +12°C° 0.2 mm 4 mps 728 mmHg 71%
12:00 +12°C° 0.2 mm 4 mps 727 mmHg 70%
13:00 +12°C° 0.2 mm 4 mps 727 mmHg 69%
14:00 +13°C° 0.2 mm 3 mps 727 mmHg 65%
15:00 +14°C° 0.2 mm 3 mps 727 mmHg 61%
16:00 +14°C° 0.2 mm 3 mps 727 mmHg 57%
17:00 +13°C° 0.1 mm 2 mps 727 mmHg 66%
18:00 +12°C° 0.1 mm 2 mps 727 mmHg 75%
19:00 +9°C° 0.1 mm 2 mps 727 mmHg 84%
20:00 +8°C° 0 mm 2 mps 727 mmHg 87%
21:00 +7°C° 0 mm 2 mps 728 mmHg 89%
22:00 +7°C° 0 mm 2 mps 728 mmHg 91%
23:00 +7°C° 0.4 mm 2 mps 728 mmHg 92%
Show more